Home   Weather   Markham   Past weeks

Flag for Canada Past Weather in Markham, Ontario, Canada — Yesterday and Last 2 Weeks

Now
50 °F

Passing clouds.


Feels Like: 49 °F
Forecast: 53 / 65 °F
Wind: 3 mph from Northeast

Location: Toronto Buttonville

Current Time: Sep 25, 2016 at 11:43:33 PM

Latest Report: Sep 25, 2016 at 11:00 PM


Visibility: 15 mi

Pressure: 30.15 "Hg

Humidity: 82%

Dew Point: 45 °F

Location of MarkhamLocation

Past Weather in Markham — Graph

°F

Markham Temperature Yesterday

Maximum temperature yesterday: 64 °F (at 3:54 PM)
Minimum temperature yesterday: 45 °F (at 5:00 AM)
Average temperature yesterday: 55 °F

High & Low Weather Summary for the Past Weeks

 TemperatureHumidityPressure
High82 °F (Sep 13, 3:00 PM)100% (Sep 18, 5:45 AM)30.38 "Hg (Sep 18, 5:45 AM)
Low43 °F (Sep 25, 6:00 AM)22% (Sep 20, 6:00 PM)29.73 "Hg (Sep 10, 10:00 PM)
Average65 °F68%30.12 "Hg
* Reported Sep 10 10:00 PM — Sep 25 10:00 PM, Markham, Weather by CustomWeather, © 2016

Note: Actual official high and low records may vary slightly from our data, if they occured in-between our weather recording intervals... More about our weather records

Advertising

Markham Weather History for the Previous 24 Hours

Scroll right to see more
 ConditionsComfort  
Time TempWeatherWind HumidityBarometerVisibility
10:00 PM
Sun, Sep 25
52 °FPassing clouds.2 mph72%30.17 "Hg15 mi
9:00 PM55 °FPassing clouds.5 mph63%30.18 "Hg15 mi
8:00 PM55 °FPassing clouds.3 mph63%30.18 "Hg15 mi
7:00 PM57 °FPartly sunny.8 mph51%30.18 "Hg15 mi
6:00 PM59 °FPartly sunny.6 mph45%30.19 "Hg15 mi
5:00 PM61 °FPartly sunny.9 mph45%30.19 "Hg15 mi
4:00 PM63 °FPartly sunny.8 mph39%30.20 "Hg15 mi
3:00 PM63 °FPartly sunny.9 mph42%30.22 "Hg15 mi
2:00 PM64 °FScattered clouds.No wind34%30.24 "Hg15 mi
1:00 PM63 °FScattered clouds.8 mph37%30.26 "Hg15 mi
12:00 PM61 °FPassing clouds.5 mph39%30.27 "Hg15 mi
11:00 AM59 °FPassing clouds.5 mph42%30.28 "Hg15 mi
10:00 AM55 °FPassing clouds.5 mph47%30.28 "Hg15 mi
9:00 AM50 °FPassing clouds.5 mph58%30.29 "Hg15 mi
8:00 AM46 °FPassing clouds.3 mph71%30.28 "Hg15 mi
7:00 AM43 °FPassing clouds.2 mph81%30.27 "Hg15 mi
6:00 AM43 °FPassing clouds.5 mph87%30.26 "Hg15 mi
5:00 AM45 °FClear.2 mph81%30.27 "Hg15 mi
4:00 AM46 °FClear.No wind82%30.26 "Hg15 mi
3:00 AM48 °FClear.5 mph76%30.27 "Hg15 mi
2:00 AM50 °FClear.3 mph76%30.27 "Hg15 mi
1:00 AM50 °FClear.7 mph76%30.27 "Hg15 mi
12:00 AM50 °FClear.5 mph76%30.26 "Hg15 mi
11:00 PM
Sat, Sep 24
50 °FClear.5 mph76%30.26 "Hg15 mi
Weather by CustomWeather, © 2016

See weather overviewHow to use our weather pages